Location: Tauranga
(37.6860°S, 176.1670°E)
Time: 17:59:45
(UTC+13:00)

Cosmos 1328 Rocket - Pass Details

Date: 24 January 2019
Orbit: 602 x 626 km, 82.5° (Epoch: 22 February)

Event Time Altitude Azimuth Distance (km) Brightness Sun altitude
Rises 20:55:34 0° 17° (NNE) 2,889 6.6 -4.5°
Reaches altitude 10° 20:57:56 10° 26° (NNE) 1,996 5.7 -4.9°
Maximum altitude 21:01:54 33° 89° (E) 1,066 4.3 -5.6°
Drops below altitude 10° 21:05:56 10° 153° (SSE) 2,032 6.3 -6.3°
Sets 21:08:22 0° 162° (SSE) 2,949 7.2 -6.7°
